OBJECT G

Last updated on Oct. 9, 2018, 8:17 a.m. UTC

1 43186U 18014G   18282.16000800  .00000811  00000-0  76386-4 0  9996
2 43186  97.7164 189.1195 0012416 125.8682 234.3694 14.96510899 37360
UTC
Height (km)
Latitude
Longitude
Inclination
Orbital Period
UTC large
Height (km)
Speed (km/s)
/
Latitude / Longitude
Inclination (degrees)
Orbital Period (minutes)
Azimuth
Elevation
Range (km)
Doppler Factor
iOS Compass Heading
iOS Angle